Terminal Aerodrome Forecast
Issued by NWS Twin Cities, MN

Home | Current Version | Previous Version | Graphics & Text | Print | Product List | Glossary On
Versions: 1 2 3 4 5 6 7 8 9 10 11 12 13 14 15 16 17 18 19 20 21 22 23 24 25 26 27
000
FTUS43 KMPX 012332
TAFMSP
TAF
KMSP 012332Z 0200/0306 18009KT P6SM FEW050
     FM020300 16004KT P6SM SKC
     FM021600 20009KT P6SM SKC=

USA.gov is the U.S. government's official web portal to all federal, state and local government web resources and services.